Brumley, MO

9:44 AM CDT on August 30, 2016 (GMT -0500)
Fine Memorial

Weather History for KAIZ - April, 2014

Change the Weather History Date:

Tuesday, April 15, 2014

  Actual Average Record
Temperature  
Mean Temperature 38 °F -  
Max Temperature 51 °F 65 °F 86 °F (2002)
Min Temperature 26 °F 44 °F 26 °F (2014)
Degree Days  
Heating Degree Days 26    
Moisture  
Dew Point 20 °F    
Average Humidity 49    
Maximum Humidity 80    
Minimum Humidity 26    
Precipitation  
Precipitation 0.00 in - - ()
Sea Level Pressure  
Sea Level Pressure 30.19 in    
Wind  
Wind Speed 4 mph (NW)    
Max Wind Speed 12 mph    
Max Gust Speed 18 mph    
Visibility 10 miles    
Events      
Averages and records for this station are not official NWS values.
T = Trace of Precipitation, MM = Missing Value Source: NWS Daily Summary

Daily Weather History Graph

Daily Weather History Graph

Search for Another Location

Airport or City:

Trip Planner

Search our weather history database for the weather conditions in past years. The results will help you decide how hot, cold, wet, or windy it might be!

Date:

Astronomy

Apr. 15, 2014 Rise Set
Actual Time 6:34 AM CDT 7:46 PM CDT
Civil Twilight 6:07 AM CDT 8:13 PM CDT
Nautical Twilight 5:34 AM CDT 8:46 PM CDT
Astronomical Twilight 5:01 AM CDT 9:20 PM CDT
Moon 8:27 PM CDT (4/15) 6:43 AM CDT (4/15)
Length of Visible Light 14h 06m
Length of Day
13h 11m
Full, 100% of the Moon is Illuminated
Apr 15
Full
Apr 22
Last Quarter
Apr 29
New
May 6
First Quarter
May 14
Full

Hourly Weather History & Observations

Time (CDT) Temp. Windchill Dew Point Humidity Pressure Visibility Wind Dir Wind Speed Gust Speed Precip Events Conditions
12:15 AM 32.0 °F 27.5 °F 21.2 °F 64% 30.17 in 10.0 mi NNW 4.6 mph - N/A   Clear
12:35 AM 32.0 °F 27.5 °F 21.2 °F 64% 30.17 in 10.0 mi NNW 4.6 mph - N/A   Clear
12:55 AM 30.2 °F 26.7 °F 21.2 °F 69% 30.18 in 10.0 mi NNW 3.5 mph - N/A   Clear
1:15 AM 30.2 °F 26.7 °F 21.2 °F 69% 30.17 in 10.0 mi NNW 3.5 mph - N/A   Clear
1:35 AM 30.2 °F 26.7 °F 21.2 °F 69% 30.17 in 10.0 mi NW 3.5 mph - N/A   Clear
1:55 AM 30.2 °F 26.7 °F 21.2 °F 69% 30.17 in 10.0 mi WNW 3.5 mph - N/A   Clear
2:15 AM 30.2 °F 26.7 °F 21.2 °F 69% 30.17 in 10.0 mi NW 3.5 mph - N/A   Clear
2:35 AM 30.2 °F 25.4 °F 21.2 °F 69% 30.17 in 10.0 mi NNW 4.6 mph - N/A   Clear
2:55 AM 30.2 °F 25.4 °F 21.2 °F 69% 30.18 in 10.0 mi NNW 4.6 mph - N/A   Clear
3:15 AM 30.2 °F 26.7 °F 21.2 °F 69% 30.18 in 10.0 mi NNW 3.5 mph - N/A   Partly Cloudy
3:35 AM 30.2 °F 26.7 °F 21.2 °F 69% 30.18 in 10.0 mi NNW 3.5 mph - N/A   Partly Cloudy
3:55 AM 30.2 °F - 19.4 °F 64% 30.18 in 10.0 mi Calm Calm - N/A   Mostly Cloudy
4:15 AM 30.2 °F 24.3 °F 19.4 °F 64% 30.18 in 10.0 mi North 5.8 mph - N/A   Mostly Cloudy
4:35 AM 30.2 °F 26.7 °F 19.4 °F 64% 30.18 in 10.0 mi North 3.5 mph - N/A   Mostly Cloudy
5:15 AM 28.4 °F 24.6 °F 21.2 °F 74% 30.19 in 10.0 mi NNW 3.5 mph - N/A   Clear
5:35 AM 26.6 °F 22.6 °F 21.2 °F 80% 30.20 in 10.0 mi NNW 3.5 mph - N/A   Clear
5:55 AM 28.4 °F 23.3 °F 21.2 °F 74% 30.20 in 10.0 mi NNW 4.6 mph - N/A   Clear
6:15 AM 28.4 °F 24.6 °F 19.4 °F 69% 30.21 in 10.0 mi NNW 3.5 mph - N/A   Clear
6:35 AM 26.6 °F - 21.2 °F 80% 30.21 in 10.0 mi Calm Calm - N/A   Clear
6:55 AM 26.6 °F - 21.2 °F 80% 30.22 in 10.0 mi Calm Calm - N/A   Clear
7:15 AM 26.6 °F - 21.2 °F 80% 30.23 in 10.0 mi Calm Calm - N/A   Clear
7:35 AM 28.4 °F - 23.0 °F 80% 30.23 in 10.0 mi Calm Calm - N/A   Clear
7:55 AM 30.2 °F - 24.8 °F 80% 30.23 in 10.0 mi Calm Calm - N/A   Clear
8:15 AM 33.8 °F 30.8 °F 21.2 °F 60% 30.24 in 10.0 mi North 3.5 mph - N/A   Clear
8:35 AM 33.8 °F 30.8 °F 21.2 °F 60% 30.24 in 10.0 mi NNW 3.5 mph - N/A   Clear
8:55 AM 35.6 °F 32.8 °F 19.4 °F 52% 30.24 in 10.0 mi NE 3.5 mph - N/A   Clear
9:15 AM 35.6 °F 31.7 °F 21.2 °F 56% 30.24 in 10.0 mi NE 4.6 mph - N/A   Clear
9:35 AM 37.4 °F - 19.4 °F 48% 30.25 in 10.0 mi Calm Calm - N/A   Clear
9:55 AM 37.4 °F 32.8 °F 17.6 °F 45% 30.26 in 10.0 mi SW 5.8 mph - N/A   Clear
10:15 AM 39.2 °F 35.0 °F 21.2 °F 49% 30.26 in 10.0 mi WSW 5.8 mph - N/A   Clear
10:35 AM 39.2 °F - 19.4 °F 45% 30.26 in 10.0 mi Calm Calm - N/A   Clear
10:55 AM 41.0 °F 39.0 °F 21.2 °F 45% 30.26 in 10.0 mi North 3.5 mph - N/A   Partly Cloudy
11:15 AM 41.0 °F 38.0 °F 17.6 °F 39% 30.26 in 10.0 mi West 4.6 mph - N/A   Scattered Clouds
11:55 AM 42.8 °F 41.1 °F 19.4 °F 39% 30.25 in 10.0 mi NNW 3.5 mph - N/A   Partly Cloudy
12:15 PM 44.6 °F 40.7 °F 21.2 °F 39% 30.25 in 10.0 mi WSW 6.9 mph - N/A   Scattered Clouds
12:55 PM 44.6 °F 41.4 °F 19.4 °F 37% 30.24 in 10.0 mi WNW 5.8 mph 16.1 mph N/A   Scattered Clouds
1:15 PM 44.6 °F 40.2 °F 17.6 °F 34% 30.23 in 10.0 mi WSW 8.1 mph - N/A   Partly Cloudy
1:35 PM 46.4 °F 42.9 °F 21.2 °F 37% 30.23 in 10.0 mi West 6.9 mph 18.4 mph N/A   Partly Cloudy
1:55 PM 46.4 °F 45.2 °F 19.4 °F 34% 30.23 in 10.0 mi West 3.5 mph 17.3 mph N/A   Partly Cloudy
2:15 PM 46.4 °F 42.4 °F 19.4 °F 34% 30.23 in 10.0 mi West 8.1 mph - N/A   Clear
2:35 PM 46.4 °F 44.3 °F 19.4 °F 34% 30.22 in 10.0 mi NNE 4.6 mph - N/A   Clear
2:55 PM 48.2 °F - 19.4 °F 32% 30.21 in 10.0 mi NW 6.9 mph 18.4 mph N/A   Clear
3:15 PM 48.2 °F - 19.4 °F 32% 30.20 in 10.0 mi WSW 9.2 mph - N/A   Clear
3:35 PM 50.0 °F - 21.2 °F 32% 30.19 in 10.0 mi WNW 11.5 mph 16.1 mph N/A   Clear
3:55 PM 48.2 °F - 19.4 °F 32% 30.18 in 10.0 mi SW 4.6 mph - N/A   Clear
4:15 PM 50.0 °F - 17.6 °F 28% 30.18 in 10.0 mi Calm Calm - N/A   Clear
4:35 PM 51.8 °F - 19.4 °F 28% 30.17 in 10.0 mi Calm Calm - N/A   Clear
4:55 PM 50.0 °F - 17.6 °F 28% 30.16 in 10.0 mi Calm Calm - N/A   Clear
5:15 PM 51.8 °F - 19.4 °F 28% 30.16 in 10.0 mi WNW 4.6 mph - N/A   Clear
5:35 PM 51.8 °F - 17.6 °F 26% 30.16 in 10.0 mi West 5.8 mph - N/A   Clear
5:55 PM 51.8 °F - 17.6 °F 26% 30.16 in 10.0 mi NNE 4.6 mph - N/A   Clear
6:15 PM 50.0 °F - 17.6 °F 28% 30.15 in 10.0 mi East 3.5 mph - N/A   Clear
6:35 PM 50.0 °F - 17.6 °F 28% 30.14 in 10.0 mi Calm Calm - N/A   Clear
6:55 PM 51.8 °F - 19.4 °F 28% 30.14 in 10.0 mi South 3.5 mph - N/A   Clear
7:15 PM 50.0 °F - 17.6 °F 28% 30.14 in 10.0 mi Calm Calm - N/A   Clear
7:35 PM 48.2 °F - 17.6 °F 30% 30.13 in 10.0 mi ESE 3.5 mph - N/A   Clear
7:55 PM 46.4 °F 45.2 °F 19.4 °F 34% 30.13 in 10.0 mi East 3.5 mph - N/A   Clear
8:15 PM 44.6 °F 43.1 °F 21.2 °F 39% 30.14 in 10.0 mi East 3.5 mph - N/A   Clear
8:35 PM 46.4 °F 45.2 °F 17.6 °F 32% 30.15 in 10.0 mi ESE 3.5 mph - N/A   Clear
8:55 PM 44.6 °F 43.1 °F 19.4 °F 37% 30.15 in 10.0 mi ESE 3.5 mph - N/A   Clear
9:15 PM 44.6 °F 43.1 °F 19.4 °F 37% 30.16 in 10.0 mi East 3.5 mph - N/A   Clear
9:35 PM 42.8 °F 40.1 °F 19.4 °F 39% 30.16 in 10.0 mi ESE 4.6 mph - N/A   Clear
9:55 PM 42.8 °F 41.1 °F 19.4 °F 39% 30.17 in 10.0 mi SE 3.5 mph - N/A   Clear
10:15 PM 41.0 °F 39.0 °F 21.2 °F 45% 30.17 in 10.0 mi SE 3.5 mph - N/A   Clear
10:35 PM 41.0 °F 38.0 °F 21.2 °F 45% 30.17 in 10.0 mi SE 4.6 mph - N/A   Clear
10:55 PM 39.2 °F 35.0 °F 21.2 °F 49% 30.17 in 10.0 mi SSE 5.8 mph - N/A   Clear
11:15 PM 39.2 °F 35.0 °F 21.2 °F 49% 30.16 in 10.0 mi SSE 5.8 mph - N/A   Clear
11:35 PM 39.2 °F 35.0 °F 21.2 °F 49% 30.16 in 10.0 mi SE 5.8 mph - N/A   Clear
11:55 PM 39.2 °F 35.0 °F 23.0 °F 52% 30.16 in 10.0 mi SSE 5.8 mph - N/A   Clear